STARLINK-3873, 52467

Orbit data source: Space-Track

STARLINK-3873, 52467 is a payload satellite owned by SpaceX/Seattle (US) in LEO that was launched on Fri, 06 May 2022 UTC via an FALCON 9 launch vehicle from the Air Force Eastern Test Range (AFETR). Payload-class satellites include a variety of spacecraft equipped with specific instruments for various scientific and technological missions. These include communications satellites like Starlink; space stations such as the ISS; scientific satellites like the Hubble; Earth observation satellites from companies like Planet Labs, Umbra, and HawkEye 360; GPS; miniature CubeSats for education and research; and military/defense satellites.

Loading next visibility...
Identifier
52467, 2022-049S
Orbit
LEO
Country
Flag of USUS
Related business
Manufacturer
SpaceX/Seattle
Mission
Operational Commercial Communications
Bus & Motor
STARLINK, Unknown motor
Mass
297 kg wet, ~220 kg dry
Launch date (UTC)
2022-05-06 (4 years ago)
Launch vehicle
FALCON 9
Launch site
Air Force Eastern Test Range (AFETR)
Object type
Payload
Rocket body
Debris
Shape & HBR
Box + 1 Pan, 10.1 m
Radar Cross Section
13.562 m², Large (>1 m²)

Expand to show TLE details & history
Last TLE update: 16 hours ago

TLE from 16 hours ago
0 STARLINK-3873
1 52467U 22049S   25346.69180128 -.00001088  00000-0 -50315-4 0  9993
2 52467  53.2187  89.6697 0000439 104.3022 255.8019 15.08829908199116
Epoch: 2025-12-12T16:36Z
TLE epoch observation values (Epoch: 2025-12-12T16:36:11.630Z)
Latitude
-0.00002°
Longitude
118.99144°
Altitude
540.746 km
Speed
7.593 km/s
True Right ascension
05h 58m 40s
True Declination
0° 00' 00"
Sunlit
Object was in full shadow at epoch
Visualization orbit readout
Latitude
Unknown
Longitude
Unknown
Altitude
Unknown
Speed
Unknown
Apparent Right ascension
Unknown
Apparent Declination
Unknown
Sunlit
N/A
Visualization observer readout
Local Sidereal Time
07:26:11
Azimuth
Unknown
Elevation
Unknown
Doppler factor
Unknown
Orbital elements
Apogee altitude
540.323 km
Perigee altitude
539.715 km
Semi-major axis
6,918.156 km
Eccentricity
0.00004
Inclination
53.2187°
RAAN
89.6697°
Arg. of periapsis
104.3022°
True anomaly
255.79702°
Mean anomaly
255.8019°
Eccentric anomaly
255.79946°
Mean motion
3.77188 °/min
Orbital period
95.44 mins
BSTAR
-0.000050315
Loading maneuver chart data...
Computing Atmospheric mass density...
Loading historical data...
Loading historical data...
Loading historical data...
Loading historical data...
Loading historical data...
Loading historical data...
Loading historical data...

Documentation

Showing up to 5 results
|